Temperature
23 23 22 22 25 27 28 29 29 29 29 28 28 27 27 26 24 23 22 21 20 20 20 19 19 19 19 19 18 18 18 18 18 18 18 18 18 18 18 18 18 18 18 18 18 18 18 18 18
23 22 23 25 26 27 28 29 29 29 29 28 28 27 26 25 24 22 21 21 21 20 19 19 19 19 19 19 18 18 18 18 18 18 18 18 18 18 18 18 18 18 18 18 18 18 18 18 18
23 23 25 27 28 29 29 30 29 30 29 28 28 26 25 24 23 22 22 21 21 20 19 20 19 19 19 19 18 18 18 18 18 18 18 18 18 18 18 18 18 18 18 18 18 18 18 18 18
23 26 28 29 30 31 31 31 30 30 29 29 28 26 25 24 23 22 22 21 21 20 20 20 19 19 19 19 18 18 18 18 18 18 18 18 18 18 18 18 18 18 18 18 18 18 18 18 18
25 28 29 30 31 31 32 31 31 30 29 28 27 25 24 23 23 22 22 22 21 20 20 20 20 19 19 19 18 18 18 18 18 18 18 18 18 18 18 18 18 18 18 18 18 18 18 18 18
27 29 29 30 31 32 32 31 31 30 29 28 27 25 24 23 23 23 23 22 21 20 20 20 20 19 19 19 19 18 18 18 18 18 18 18 18 18 18 18 18 18 18 18 18 18 18 18 18
29 30 30 32 31 31 32 31 31 30 30 29 27 26 24 23 23 23 23 22 22 21 20 20 20 19 19 19 19 19 19 18 18 18 18 18 18 18 18 18 18 18 18 18 18 18 18 18 18
31 31 31 32 32 31 32 32 31 30 29 29 28 26 24 23 23 23 23 22 22 21 20 20 19 19 19 19 19 19 19 19 18 18 18 18 18 18 18 18 18 18 18 18 18 18 18 18 18
32 32 31 32 32 32 32 32 31 30 30 29 28 26 25 24 24 23 23 22 21 21 21 20 19 19 19 19 19 19 19 19 18 18 18 18 18 18 18 18 18 18 18 18 18 18 18 18 18
33 31 32 34 33 33 33 32 31 31 30 29 27 26 25 24 24 24 23 22 22 21 21 20 20 19 19 19 19 19 18 18 18 18 18 18 18 18 18 18 18 18 18 18 18 18 18 18 18
34 32 33 34 33 33 33 32 32 31 30 28 27 26 25 25 25 24 24 23 22 21 21 20 20 20 19 19 19 19 18 18 18 18 18 18 18 18 18 18 18 18 18 18 18 18 18 18 18
34 34 34 34 34 33 33 33 32 31 30 28 27 26 25 25 25 25 24 23 22 21 21 20 20 20 19 19 19 19 19 18 18 18 18 18 18 18 18 18 18 18 18 18 18 18 18 18 18
35 34 34 34 34 33 33 33 32 31 30 28 27 26 26 25 25 25 24 23 22 21 21 20 20 20 19 19 19 19 19 19 18 18 18 18 18 18 18 18 18 18 18 18 18 18 18 18 18
35 35 35 34 34 33 33 33 32 31 30 29 28 27 26 26 25 25 24 23 22 21 21 20 20 20 19 19 19 19 19 19 19 18 18 18 18 18 18 18 18 18 18 18 18 18 18 18 18
34 34 34 34 34 34 33 32 32 31 30 29 28 27 27 26 25 25 24 23 22 21 21 20 20 19 19 19 19 19 19 19 19 18 18 18 18 18 18 18 18 18 18 18 18 18 18 18 18
34 33 32 33 34 34 33 30 31 30 30 29 29 28 27 26 26 25 24 23 22 21 21 20 20 20 20 19 19 19 19 19 19 19 18 18 18 18 18 18 18 18 18 18 18 18 18 18 18
33 32 32 33 34 34 33 31 32 31 30 30 29 28 27 26 26 25 24 23 22 21 21 20 20 20 20 19 19 19 19 19 19 19 18 18 18 18 18 18 18 18 18 18 18 18 18 18 18
33 33 33 33 34 34 33 32 32 32 31 30 30 29 28 27 26 25 24 23 22 21 21 20 20 20 19 19 19 19 19 19 19 19 18 18 18 18 18 18 18 18 18 18 18 18 18 18 18
34 33 33 34 35 34 33 33 33 33 32 31 30 29 28 27 26 25 24 23 22 21 21 20 20 20 20 19 19 19 19 19 19 19 19 18 18 18 18 18 18 18 18 18 18 18 18 18 18
34 33 33 34 34 34 33 34 34 33 33 32 31 29 28 27 26 25 24 23 22 21 21 20 20 20 20 20 20 19 19 19 19 19 19 18 18 18 19 18 18 18 18 18 18 18 18 18 18
33 33 33 33 34 34 33 33 33 34 33 32 31 30 29 28 26 25 24 24 23 22 21 21 20 20 20 20 19 19 19 19 19 19 19 19 19 19 19 19 18 18 18 18 18 18 18 18 18
33 34 34 33 32 32 33 31 32 33 33 32 31 31 30 28 27 25 24 24 23 22 21 21 20 20 20 20 19 19 19 19 19 19 19 19 19 19 19 18 18 18 18 18 18 18 18 18 18
34 34 34 33 32 31 32 31 32 33 32 32 32 31 30 29 27 26 25 24 23 22 21 21 20 20 20 20 20 19 19 19 19 19 19 19 19 19 19 18 18 18 18 18 18 18 18 18 18
34 34 33 33 32 30 31 31 31 32 32 32 32 31 30 29 28 27 25 24 24 23 22 21 20 20 20 20 20 19 19 19 19 19 19 19 19 19 19 18 18 18 18 18 18 18 18 18 18
34 32 31 30 30 30 32 32 32 33 33 32 32 31 30 29 28 27 26 24 24 23 22 22 21 20 20 20 20 19 19 19 19 19 19 19 19 19 18 18 18 18 18 18 18 18 18 18 18
33 32 30 29 30 31 32 31 32 33 33 32 32 32 31 30 29 27 26 25 24 23 22 22 21 20 20 20 20 19 19 19 19 19 19 19 19 19 19 19 19 18 18 18 18 18 18 18 18
32 32 33 31 31 30 31 31 32 33 32 32 32 31 31 30 29 28 26 25 24 23 23 22 22 21 20 20 20 19 19 19 19 19 19 19 19 19 19 18 18 18 18 18 18 18 18 17 18
33 32 31 31 29 29 30 30 31 31 31 32 31 31 30 30 29 28 26 25 24 23 23 22 21 21 20 19 19 19 19 19 19 18 18 19 19 19 19 18 18 18 18 18 18 18 17 17 17
31 31 31 31 30 29 29 30 32 30 30 31 31 30 29 29 28 27 26 25 24 23 23 22 21 21 20 20 19 19 19 19 19 18 18 18 18 18 18 18 18 18 18 17 17 17 17 17 17
32 32 31 30 29 30 29 30 32 32 31 31 30 29 29 28 27 27 26 25 24 23 22 22 21 20 20 20 19 19 19 19 19 18 18 18 18 18 18 18 18 17 17 17 17 17 17 17 16
Wind_Speed
10 11 10 6 4 1 11 13 13 13 13 13 14 13 16 14 10 10 10 12 14 15 15 15 14 15 15 15 15 15 15 15 14 13 13 13 14 14 14 14 14 14 14 15 15 15 16 15 15
10 11 8 4 1 7 12 13 14 13 12 12 14 16 16 16 14 12 11 12 15 15 14 15 15 15 15 15 15 15 15 14 14 13 13 13 13 13 13 13 14 14 15 15 15 15 14 14 14
12 13 6 2 5 10 12 13 12 12 11 11 13 15 12 11 12 10 12 14 15 15 16 16 16 15 15 15 14 15 14 14 13 13 13 13 13 13 13 13 13 14 15 15 15 14 14 13 12
7 7 4 1 12 13 13 12 12 12 11 11 12 12 12 11 11 12 14 14 16 16 17 17 16 16 15 15 14 13 13 13 13 12 12 12 12 13 13 12 12 13 14 14 14 14 13 12 11
8 4 1 6 14 14 12 12 12 12 11 14 16 14 13 12 14 14 13 14 15 16 16 16 17 17 16 15 14 13 13 12 12 12 12 12 12 12 12 11 12 13 13 13 13 13 12 12 10
5 2 1 8 13 13 12 11 12 13 13 14 16 15 12 13 13 12 13 14 14 16 16 16 17 17 16 15 14 13 11 11 11 11 11 11 12 12 11 11 12 13 13 13 12 12 12 10 9
7 1 2 9 12 12 11 11 12 12 12 11 14 14 12 13 12 12 12 12 13 15 15 14 15 14 14 14 13 12 11 10 10 10 10 11 11 12 11 11 12 12 12 12 12 11 11 9 7
6 1 3 9 11 12 11 12 12 13 10 11 12 11 12 14 12 12 12 12 11 12 13 13 13 14 13 12 12 11 10 10 9 10 10 10 10 11 11 11 11 11 11 11 11 10 10 9 7
3 2 5 10 10 10 11 12 12 11 11 11 12 15 16 16 14 13 12 11 11 10 10 10 12 11 12 12 12 11 10 9 9 9 9 9 9 10 10 11 12 11 11 10 10 9 8 8 7
2 4 7 10 10 9 10 11 10 10 12 14 16 18 17 15 13 13 12 12 11 11 10 9 10 10 10 10 11 10 9 9 8 7 9 7 7 8 9 12 12 11 10 9 9 8 7 7 7
5 6 6 10 10 8 9 9 9 10 11 14 17 17 15 14 12 12 11 12 12 11 9 10 9 7 7 7 8 6 7 8 7 6 6 7 8 8 9 9 9 9 9 8 8 8 6 7 5
4 4 6 7 8 7 8 9 9 10 13 15 17 17 15 13 11 11 11 11 12 11 9 9 8 7 5 5 5 5 5 6 5 6 6 6 4 5 6 6 7 7 7 6 7 6 6 4 3
1 3 5 6 7 7 8 9 10 12 15 17 18 16 15 13 12 11 11 11 12 10 10 10 9 7 5 3 2 4 4 5 7 6 5 4 3 4 4 3 4 5 5 5 3 3 3 2 2
1 1 3 5 6 6 7 9 10 13 15 16 16 15 14 13 12 12 11 11 11 10 9 10 10 8 6 4 1 2 4 5 7 6 6 5 4 4 3 3 2 2 4 4 3 3 3 2 1
4 2 2 5 6 6 5 6 9 13 15 15 14 14 13 13 13 12 11 11 11 10 9 9 10 9 6 5 4 3 3 5 5 6 8 5 5 5 3 3 3 2 3 3 2 2 2 2 2
9 7 6 6 6 7 5 3 9 11 14 14 14 13 13 12 13 12 12 11 11 10 9 8 8 10 8 5 3 3 3 4 5 6 7 6 5 5 3 3 3 3 3 3 2 2 2 1 1
12 10 9 8 9 8 6 6 12 14 13 14 13 14 13 13 13 13 13 12 11 10 9 7 6 9 8 6 4 3 3 3 4 6 6 6 6 6 4 2 2 3 2 2 3 3 2 1 1
10 9 8 7 9 8 8 8 12 15 13 14 14 13 14 14 13 13 13 13 12 11 9 8 7 7 7 6 4 2 3 3 3 4 5 7 6 7 4 3 2 2 1 1 1 1 1 1 2
12 10 8 5 4 6 8 10 12 13 13 14 14 13 13 14 14 14 13 13 13 11 10 9 8 7 5 4 5 4 4 4 4 4 6 7 6 6 4 2 3 3 2 2 2 2 2 2 1
12 11 11 6 3 4 6 7 11 12 14 14 15 15 15 15 15 14 13 13 13 12 11 10 8 8 7 5 4 4 4 3 4 3 5 7 6 6 5 4 3 3 2 3 3 3 2 2 2
14 13 11 8 6 8 8 9 10 12 12 12 13 15 15 16 16 16 14 12 13 13 12 11 9 9 8 7 5 4 3 2 3 3 4 4 5 6 3 4 4 4 4 4 4 4 4 3 3
13 12 10 9 9 9 10 7 9 11 12 12 12 12 14 15 16 16 16 14 14 14 13 10 9 8 8 7 7 7 6 5 4 4 4 5 5 4 5 4 4 3 3 4 4 4 3 3 3
13 10 10 10 11 12 12 10 8 9 11 12 14 13 12 14 16 17 17 15 14 15 14 12 10 8 8 7 6 6 5 5 4 4 5 5 5 5 5 4 4 4 3 3 3 2 3 3 3
12 12 11 11 11 13 14 14 9 8 11 11 13 14 13 14 16 16 16 14 13 13 13 13 11 9 8 8 6 6 5 4 4 5 5 5 4 5 5 5 4 4 3 3 3 3 4 3 3
13 12 10 11 11 12 12 12 7 6 8 9 10 12 14 14 14 15 15 15 14 13 13 13 13 10 9 8 7 6 5 4 4 4 5 5 4 4 4 5 4 4 4 3 3 4 3 3 3
13 14 12 11 11 10 11 10 6 7 8 8 8 10 11 13 14 15 15 14 13 13 13 12 13 11 10 9 7 6 5 5 4 4 4 4 3 3 4 5 5 5 5 5 4 4 3 3 4
15 15 14 13 15 14 9 7 5 7 8 9 9 8 10 11 12 13 14 14 13 13 12 12 12 11 10 9 7 5 5 5 4 4 4 2 2 3 4 5 5 5 5 4 4 3 3 3 4
16 13 10 11 10 12 12 10 6 7 9 9 8 7 8 9 10 11 12 12 12 11 10 10 11 10 9 9 8 7 6 5 4 3 3 2 2 1 3 4 4 4 4 4 3 3 3 3 3
14 15 12 10 11 11 11 7 2 5 6 8 9 8 7 7 7 10 10 11 10 11 11 10 10 10 10 10 8 7 7 6 5 4 3 3 3 2 2 3 3 3 3 3 3 3 3 3 3
15 16 15 12 11 11 12 7 2 3 5 6 8 9 7 6 5 6 9 9 10 9 10 9 9 9 9 9 8 8 7 7 6 5 4 3 3 3 3 3 3 4 4 3 3 4 3 3 4
Wind_Direction
193 211 219 238 245 101 69 70 70 70 67 62 62 68 66 61 72 94 111 115 114 111 115 111 105 103 102 103 105 105 105 104 102 102 103 104 104 105 106 107 110 113 115 116 115 116 118 119 119
216 221 228 245 259 75 73 71 71 75 79 80 74 74 73 70 83 102 113 118 117 115 117 113 111 107 105 105 105 104 104 104 103 103 104 106 106 106 108 109 112 117 119 120 121 120 121 122 123
239 243 251 224 69 74 80 82 86 87 88 88 81 70 70 84 92 108 120 124 116 112 112 116 116 113 111 109 108 106 107 107 105 104 105 107 108 110 110 111 113 120 121 123 124 124 125 127 130
241 238 237 87 75 78 84 92 96 91 86 84 85 78 77 86 101 115 125 122 116 116 116 120 120 117 115 113 110 108 108 108 107 106 106 109 111 113 113 113 115 119 123 125 127 128 128 130 133
243 269 252 81 82 84 87 94 95 93 86 82 86 91 90 92 105 118 125 120 119 116 117 123 124 121 119 118 117 115 114 113 112 111 112 114 115 114 114 115 121 122 123 128 129 131 131 131 134
253 267 51 87 88 89 92 95 91 88 91 96 99 99 100 111 114 122 123 119 119 120 120 126 127 127 126 126 124 120 118 116 117 117 118 118 118 118 116 114 122 127 128 128 128 129 130 133 137
250 275 80 92 95 90 92 94 89 92 93 97 106 106 116 119 121 125 122 118 122 123 126 134 134 132 131 129 129 127 124 122 124 123 122 121 121 122 122 116 118 124 127 129 131 133 137 139 145
244 310 40 90 94 94 93 89 89 94 90 98 109 111 127 133 136 130 124 117 117 122 129 137 139 141 143 138 138 137 134 131 133 133 133 132 132 133 132 128 125 127 130 132 134 137 143 147 159
277 354 63 82 89 100 106 100 97 101 101 94 91 114 131 138 139 137 130 123 122 124 132 138 139 146 146 142 142 146 148 145 145 147 152 154 152 148 146 135 135 137 137 139 142 145 153 160 177
121 57 71 80 92 103 108 110 116 112 106 100 101 115 131 142 147 144 138 135 135 135 136 133 135 140 141 137 143 157 156 155 163 154 161 167 151 145 137 138 144 148 150 152 157 163 172 182 190
77 88 78 84 96 109 111 113 115 113 116 121 126 132 141 147 150 146 142 141 140 138 137 137 134 132 131 131 150 156 148 155 159 156 164 158 149 143 139 150 155 165 169 175 169 184 197 200 193
81 72 88 92 104 105 104 104 101 100 115 129 134 141 148 151 153 149 145 140 135 137 140 132 129 121 122 133 142 151 151 159 148 152 168 162 154 154 150 161 165 174 180 177 178 183 190 195 176
90 111 103 106 111 108 109 107 107 110 119 129 137 146 152 155 151 145 138 135 133 135 135 130 125 118 115 109 151 149 141 145 139 150 159 152 145 138 139 145 160 178 163 170 185 164 167 178 171
278 129 136 134 131 128 132 132 129 127 131 135 145 152 156 154 152 146 142 141 138 138 137 134 131 130 129 134 140 132 146 142 136 148 150 166 147 134 133 143 158 176 172 174 171 165 162 178 164
275 264 234 193 173 152 145 143 139 137 141 145 152 158 157 157 155 152 152 147 142 139 138 139 145 141 146 156 172 158 158 153 142 142 144 160 147 143 148 153 171 189 182 154 156 168 163 180 189
246 234 234 225 202 170 178 168 140 146 153 155 159 162 161 161 161 158 156 149 145 145 142 150 154 146 152 165 176 164 164 143 137 143 149 160 153 154 170 167 179 178 175 170 173 190 176 174 203
248 229 221 208 205 183 180 176 157 165 165 162 166 166 165 165 166 162 161 155 149 146 144 152 146 146 156 164 168 175 147 139 141 146 147 159 164 173 184 181 158 179 184 176 197 166 169 165 193
258 245 231 216 196 197 190 184 172 173 172 170 171 169 168 169 169 163 164 158 152 148 149 156 153 152 160 160 163 175 159 156 149 145 148 158 174 183 189 175 175 191 184 158 142 126 141 181 211
264 274 266 245 208 223 205 191 179 175 179 177 172 171 175 174 169 164 164 161 155 152 155 160 161 158 160 163 172 178 175 177 174 169 157 169 185 184 192 190 178 198 187 169 179 170 180 208 197
257 262 262 257 252 261 247 212 186 187 188 182 177 176 183 176 170 165 167 166 160 159 162 164 167 166 174 174 178 178 175 181 179 169 154 177 187 183 194 193 196 189 188 187 197 193 195 217 202
253 250 259 270 266 253 251 230 205 200 191 185 183 178 180 178 173 169 172 172 167 165 168 174 169 170 181 175 180 187 170 189 171 166 163 182 184 186 193 179 200 199 201 198 205 202 201 217 220
256 253 258 263 262 263 251 244 216 204 189 183 183 182 184 180 174 173 174 176 175 170 170 164 165 169 178 182 191 188 183 188 188 174 170 184 184 187 183 188 200 200 202 195 204 200 210 213 226
265 267 263 263 267 270 269 260 233 201 194 191 185 187 187 180 177 175 177 178 178 174 172 168 165 169 175 187 195 198 193 188 183 174 171 183 184 186 183 182 196 204 205 201 207 197 210 217 227
258 268 263 260 259 255 254 259 249 215 199 192 185 181 186 183 179 174 175 172 177 174 171 170 167 172 176 184 191 199 201 189 182 181 175 189 186 187 188 186 194 207 214 214 201 213 211 224 233
240 249 255 246 242 249 247 250 245 207 184 183 184 178 181 178 172 169 171 173 176 175 173 170 168 175 179 185 191 192 199 191 195 194 187 202 191 182 190 189 187 211 213 211 212 213 215 222 230
239 241 246 258 262 263 247 248 231 177 163 167 174 168 169 169 169 169 170 170 173 175 173 171 169 174 180 186 190 190 192 201 200 210 214 201 205 183 173 177 191 209 213 217 217 215 216 225 234
245 245 249 256 265 273 267 259 240 159 163 167 172 166 163 166 170 169 169 169 171 175 173 173 167 171 178 183 180 182 186 199 196 191 218 219 204 200 165 177 187 205 210 224 216 217 221 215 221
242 250 260 252 259 267 267 246 228 176 172 167 160 156 155 164 168 161 160 166 172 172 168 164 159 167 172 178 183 192 192 190 191 205 190 218 229 219 172 178 181 205 206 212 227 220 228 221 226
229 233 246 262 264 264 269 266 226 169 170 165 157 152 148 149 155 159 159 163 164 169 168 168 165 167 175 181 185 185 180 182 185 200 191 198 212 211 198 192 194 204 218 216 217 226 223 229 237
242 239 234 241 251 262 272 266 230 143 152 156 145 135 129 119 126 151 151 154 161 166 171 170 173 176 179 178 178 180 175 177 182 188 189 194 197 206 208 203 205 216 216 218 217 229 227 230 239
Height
1473 1473 1473 1476 1475 1473 1472 1467 1464 1466 1468 1471 1472 1474 1478 1481 1487 1499 1501 1500 1501 1501 1501 1502 1503 1504 1505 1506 1508 1510 1511 1513 1514 1516 1517 1518 1520 1521 1523 1524 1525 1526 1528 1530 1531 1533 1535 1537 1539
1472 1474 1477 1475 1473 1478 1476 1467 1468 1470 1471 1473 1475 1478 1482 1487 1491 1497 1500 1502 1503 1503 1504 1505 1506 1507 1508 1509 1511 1512 1514 1515 1516 1518 1519 1520 1522 1523 1524 1525 1526 1528 1530 1531 1533 1535 1537 1539 1541
1473 1475 1476 1469 1468 1474 1475 1468 1469 1470 1473 1474 1478 1482 1487 1492 1496 1498 1501 1503 1505 1506 1507 1507 1508 1509 1511 1512 1513 1515 1516 1517 1518 1520 1521 1522 1523 1525 1526 1527 1528 1530 1531 1533 1535 1537 1539 1541 1543
1475 1475 1472 1467 1467 1464 1464 1466 1468 1471 1473 1475 1479 1486 1492 1496 1498 1500 1503 1505 1506 1507 1508 1509 1510 1512 1513 1514 1515 1517 1518 1519 1520 1522 1523 1524 1525 1526 1527 1529 1530 1531 1533 1535 1537 1538 1540 1542 1544
1476 1472 1470 1468 1464 1462 1462 1465 1468 1471 1474 1478 1483 1490 1496 1499 1500 1502 1504 1506 1508 1509 1510 1511 1513 1514 1515 1516 1517 1519 1520 1521 1522 1523 1525 1525 1526 1527 1529 1529 1530 1532 1534 1536 1538 1540 1542 1544 1546
1474 1469 1473 1472 1466 1463 1464 1466 1469 1472 1476 1480 1485 1491 1498 1502 1502 1504 1506 1508 1510 1511 1512 1513 1515 1516 1517 1518 1519 1521 1522 1523 1524 1525 1526 1527 1528 1529 1529 1528 1528 1532 1536 1538 1540 1542 1543 1546 1547
1472 1468 1470 1464 1466 1466 1465 1467 1470 1474 1477 1481 1486 1492 1499 1503 1505 1506 1508 1510 1512 1513 1514 1515 1516 1518 1519 1520 1521 1523 1524 1525 1526 1527 1528 1529 1530 1531 1531 1531 1532 1535 1538 1540 1542 1544 1545 1547 1549
1466 1465 1465 1462 1466 1468 1466 1469 1472 1476 1480 1483 1486 1492 1499 1504 1506 1508 1510 1511 1513 1515 1516 1517 1518 1519 1521 1522 1523 1524 1525 1526 1527 1528 1529 1530 1531 1533 1534 1535 1536 1538 1540 1542 1544 1546 1548 1549 1551
1462 1465 1468 1463 1465 1466 1467 1470 1474 1478 1481 1484 1487 1491 1498 1503 1506 1508 1511 1513 1515 1516 1518 1519 1520 1521 1523 1524 1525 1526 1526 1527 1528 1529 1530 1531 1533 1534 1536 1537 1539 1541 1542 1544 1546 1548 1550 1551 1553
1460 1468 1464 1458 1460 1464 1466 1470 1473 1477 1481 1486 1491 1496 1500 1503 1506 1508 1511 1513 1515 1517 1519 1520 1522 1523 1524 1526 1526 1527 1528 1528 1529 1530 1531 1533 1534 1536 1538 1539 1541 1542 1544 1546 1548 1550 1551 1552 1554
1457 1463 1458 1459 1462 1464 1466 1469 1472 1476 1481 1487 1492 1497 1501 1503 1506 1508 1511 1513 1516 1518 1520 1521 1522 1524 1525 1526 1527 1528 1529 1529 1530 1531 1532 1534 1536 1537 1539 1540 1542 1543 1545 1547 1549 1551 1552 1553 1555
1458 1458 1458 1460 1463 1464 1466 1469 1472 1476 1481 1487 1492 1496 1500 1503 1506 1508 1511 1513 1516 1518 1520 1522 1523 1524 1526 1527 1528 1529 1530 1530 1531 1532 1532 1534 1536 1538 1540 1542 1543 1545 1546 1548 1550 1551 1552 1555 1556
1456 1458 1459 1461 1463 1465 1467 1470 1474 1478 1483 1487 1492 1496 1500 1503 1506 1508 1511 1514 1516 1518 1520 1521 1523 1524 1525 1527 1528 1530 1530 1531 1532 1532 1533 1535 1537 1539 1541 1543 1544 1546 1548 1549 1551 1552 1553 1555 1556
1457 1458 1458 1460 1462 1465 1467 1470 1474 1479 1483 1488 1492 1496 1499 1502 1505 1508 1511 1514 1516 1518 1520 1521 1523 1524 1525 1527 1528 1530 1531 1532 1533 1533 1534 1536 1538 1539 1541 1543 1545 1546 1548 1549 1551 1552 1553 1555 1556
1458 1460 1460 1459 1460 1463 1466 1472 1473 1478 1482 1487 1491 1495 1498 1502 1505 1508 1511 1513 1516 1518 1520 1521 1523 1524 1525 1527 1529 1530 1531 1532 1533 1534 1535 1537 1538 1540 1541 1543 1545 1546 1548 1549 1550 1552 1553 1554 1555
1458 1464 1470 1461 1459 1461 1469 1481 1474 1478 1481 1485 1489 1493 1497 1500 1503 1507 1510 1513 1515 1517 1519 1521 1523 1524 1525 1527 1529 1530 1532 1533 1534 1534 1535 1537 1539 1540 1541 1543 1545 1546 1548 1549 1550 1551 1552 1553 1554
1462 1469 1470 1462 1456 1457 1464 1474 1471 1475 1478 1483 1487 1491 1495 1499 1502 1505 1508 1511 1514 1516 1518 1520 1523 1523 1525 1526 1528 1530 1531 1533 1534 1535 1536 1537 1538 1540 1541 1543 1545 1546 1547 1549 1550 1550 1551 1552 1553
1467 1464 1463 1461 1454 1454 1462 1466 1467 1469 1474 1479 1483 1488 1492 1496 1500 1503 1507 1510 1512 1515 1517 1519 1521 1523 1525 1526 1528 1529 1531 1533 1534 1535 1536 1537 1538 1540 1541 1542 1544 1545 1547 1548 1549 1549 1550 1551 1552
1456 1459 1462 1455 1449 1453 1459 1462 1463 1464 1469 1474 1479 1484 1489 1493 1498 1501 1505 1508 1511 1513 1515 1517 1520 1522 1523 1525 1527 1528 1530 1532 1533 1534 1535 1536 1538 1539 1540 1542 1543 1544 1545 1546 1547 1548 1549 1550 1551
1454 1460 1460 1453 1448 1454 1457 1457 1457 1460 1463 1469 1474 1480 1485 1490 1495 1499 1503 1506 1508 1511 1513 1516 1518 1520 1522 1524 1526 1527 1529 1531 1532 1534 1535 1536 1537 1538 1540 1540 1542 1543 1544 1544 1545 1546 1547 1548 1549
1455 1458 1458 1457 1452 1451 1458 1462 1458 1456 1459 1464 1469 1474 1480 1485 1490 1495 1499 1503 1506 1508 1511 1514 1516 1518 1520 1522 1525 1527 1528 1530 1532 1533 1534 1535 1536 1537 1538 1539 1540 1541 1542 1542 1544 1545 1545 1546 1548
1457 1448 1450 1454 1462 1466 1460 1476 1462 1454 1457 1461 1466 1471 1476 1481 1486 1491 1496 1500 1503 1506 1508 1511 1514 1516 1518 1521 1523 1525 1526 1528 1530 1531 1532 1533 1534 1536 1537 1538 1539 1539 1540 1541 1542 1543 1544 1544 1545
1449 1444 1448 1452 1459 1467 1463 1470 1463 1451 1457 1458 1461 1466 1471 1476 1482 1487 1492 1497 1501 1504 1506 1509 1511 1514 1516 1519 1521 1523 1525 1526 1528 1530 1531 1532 1533 1533 1534 1535 1536 1537 1538 1539 1540 1541 1542 1542 1543
1444 1448 1451 1452 1459 1478 1467 1468 1466 1452 1452 1454 1456 1462 1467 1472 1477 1483 1489 1493 1498 1501 1504 1506 1509 1511 1514 1516 1519 1521 1523 1525 1526 1527 1528 1529 1531 1531 1532 1533 1534 1535 1536 1537 1537 1538 1539 1539 1540
1446 1459 1474 1478 1476 1474 1456 1460 1458 1443 1442 1448 1453 1457 1463 1468 1474 1479 1485 1489 1494 1498 1501 1504 1506 1508 1511 1514 1516 1518 1520 1522 1524 1525 1527 1528 1529 1529 1530 1531 1532 1533 1534 1535 1535 1536 1536 1537 1537
1447 1455 1477 1489 1483 1469 1455 1458 1449 1438 1440 1445 1450 1455 1460 1465 1471 1476 1481 1486 1490 1494 1498 1501 1503 1505 1508 1511 1513 1516 1518 1520 1521 1523 1524 1526 1527 1527 1528 1529 1529 1530 1531 1532 1533 1533 1534 1534 1534
1449 1450 1447 1462 1466 1471 1463 1453 1444 1437 1441 1444 1450 1454 1459 1464 1469 1473 1478 1483 1487 1490 1494 1497 1499 1502 1505 1508 1511 1513 1515 1517 1518 1520 1522 1523 1524 1525 1526 1526 1527 1528 1529 1530 1530 1530 1531 1532 1532
1440 1445 1451 1460 1476 1482 1467 1459 1454 1446 1444 1445 1449 1454 1458 1463 1467 1471 1475 1480 1484 1488 1491 1494 1497 1499 1502 1505 1508 1510 1512 1513 1515 1518 1519 1520 1521 1522 1523 1524 1524 1525 1526 1527 1527 1528 1528 1529 1529
1443 1447 1451 1454 1457 1472 1478 1465 1438 1441 1444 1444 1448 1453 1458 1462 1466 1469 1473 1478 1482 1486 1489 1492 1495 1497 1500 1502 1505 1508 1509 1511 1513 1515 1516 1517 1518 1520 1520 1521 1522 1522 1522 1523 1524 1525 1525 1526 1526
1435 1439 1445 1461 1463 1459 1465 1462 1435 1437 1440 1444 1448 1453 1457 1462 1466 1469 1472 1476 1480 1484 1487 1490 1492 1495 1497 1500 1502 1504 1507 1508 1510 1511 1513 1514 1515 1516 1517 1518 1518 1519 1520 1520 1521 1521 1522 1523 1523